Tracking 20369 objects as of 18-Feb-2020
HD Live streaming from Space Station
objects crossing your sky now

COSMOS 1244

Track COSMOS 1244 now!
10-day predictions
COSMOS 1244 is classified as:


NORAD ID: 12297
Int'l Code: 1981-013A
Perigee: 966.1 km
Apogee: 1,011.4 km
Inclination: 83.0 °
Period: 104.7 minutes
Semi major axis: 7359 km
RCS: 2.3625 m2 (large)
Launch date: February 12, 1981
Source: Commonwealth of Independent States (former USSR) (CIS)
Launch site: PLESETSK MISSILE AND SPACE COMPLEX (PKMTR)
aabbcc
Your satellite tracking list
Your tracking list is empty




NASA's NSSDC Master Catalog

Two Line Element Set (TLE):
1 12297U 81013A   20048.82605684  .00000020  00000-0  48705-5 0  9998
2 12297  82.9554 355.8199 0030770 158.7641 219.9812 13.75005783601834
Source of the keplerian elements: AFSPC